Lamar, CO

10:42 PM MDT on October 19, 2017 (GMT -0600)
Lamar Municipal

Weather History for KLAA - September, 2012

Change the Weather History Date:

Monday, September 10, 2012

  Actual Average Record
Temperature  
Mean Temperature 76 °F 69 °F  
Max Temperature 97 °F 85 °F 103 °F (1936)
Min Temperature 54 °F 53 °F 38 °F (1959)
Degree Days  
Heating Degree Days 0 1  
Month to date heating degree days 2 9  
Since 1 July heating degree days 2 14  
Cooling Degree Days 11 5  
Month to date cooling degree days 85 62  
Year to date cooling degree days 1601 1051  
Growing Degree Days 26 (Base 50)    
Moisture  
Dew Point 35 °F    
Average Humidity 26    
Maximum Humidity 43    
Minimum Humidity 8    
Precipitation  
Precipitation 0.00 in 0.05 in 1.06 in (1925)
Month to date precipitation T 0.50  
Year to date precipitation 4.38  
Snow  
Snow 0.00 in - - ()
Month to date snowfall 0.0  
Snow Depth 0.00 in    
Sea Level Pressure  
Sea Level Pressure 29.81 in    
Wind  
Wind Speed 12 mph (South)    
Max Wind Speed 24 mph    
Max Gust Speed 32 mph    
Visibility 10 miles    
Events      
T = Trace of Precipitation, MM = Missing Value Source: NWS Daily Summary

Daily Weather History Graph

Daily Weather History Graph

Search for Another Location

Airport or City:

Trip Planner

Search our weather history database for the weather conditions in past years. The results will help you decide how hot, cold, wet, or windy it might be!

Date:

Astronomy

Sep. 10, 2012 Rise Set
Actual Time 6:28 AM MDT 7:05 PM MDT
Civil Twilight 6:02 AM MDT 7:32 PM MDT
Nautical Twilight 5:30 AM MDT 8:03 PM MDT
Astronomical Twilight 4:58 AM MDT 8:35 PM MDT
Moon 12:55 AM MDT (9/10) 3:33 PM MDT (9/10)
Length of Visible Light 13h 30m
Length of Day
12h 37m
Waning Crescent, 29% of the Moon is Illuminated
Sep 10
Waning Crescent
Sep 15
New
Sep 22
First Quarter
Sep 29
Full
Oct 8
Last Quarter

Hourly Weather History & Observations

Time (MDT) Temp. Dew Point Humidity Pressure Visibility Wind Dir Wind Speed Gust Speed Precip Events Conditions
12:53 AM 66.0 °F 33.1 °F 29% 29.95 in 10.0 mi South 15.0 mph - N/A   Clear
1:53 AM 68.0 °F 32.0 °F 26% 29.92 in 10.0 mi South 18.4 mph - N/A   Clear
2:53 AM 66.0 °F 32.0 °F 28% 29.91 in 10.0 mi South 15.0 mph - N/A   Clear
3:53 AM 62.1 °F 32.0 °F 32% 29.90 in 10.0 mi South 11.5 mph - N/A   Clear
4:53 AM 61.0 °F 32.0 °F 34% 29.89 in 10.0 mi South 10.4 mph - N/A   Clear
5:53 AM 57.0 °F 33.1 °F 40% 29.91 in 10.0 mi SSW 8.1 mph - N/A   Clear
6:53 AM 55.0 °F 34.0 °F 45% 29.92 in 10.0 mi North 3.5 mph - N/A   Clear
7:53 AM 64.9 °F 36.0 °F 34% 29.92 in 10.0 mi Calm Calm - N/A   Clear
8:53 AM 78.1 °F 37.9 °F 24% 29.89 in 10.0 mi SSW 11.5 mph - N/A   Clear
9:53 AM 82.0 °F 37.9 °F 21% 29.88 in 10.0 mi SW 9.2 mph - N/A   Clear
10:53 AM 86.0 °F 37.9 °F 18% 29.86 in 10.0 mi South 6.9 mph - N/A   Clear
11:53 AM 89.1 °F 35.1 °F 15% 29.83 in 10.0 mi South 9.2 mph - N/A   Clear
12:53 PM 91.9 °F 33.1 °F 12% 29.80 in 10.0 mi SSW 6.9 mph - N/A   Clear
1:53 PM 93.9 °F 28.0 °F 10% 29.76 in 10.0 mi Variable 6.9 mph - N/A   Clear
2:53 PM 95.0 °F 28.0 °F 9% 29.74 in 10.0 mi South 6.9 mph 18.4 mph N/A   Clear
3:53 PM 96.1 °F 28.0 °F 9% 29.72 in 10.0 mi SSW 8.1 mph - N/A   Clear
4:53 PM 95.0 °F 28.0 °F 9% 29.71 in 10.0 mi South 10.4 mph - N/A   Clear
5:53 PM 93.9 °F 25.0 °F 8% 29.70 in 10.0 mi SSW 10.4 mph - N/A   Clear
6:53 PM 89.1 °F 39.9 °F 18% 29.72 in 10.0 mi South 20.7 mph 25.3 mph N/A   Clear
7:53 PM 84.0 °F 42.1 °F 23% 29.71 in 10.0 mi SSE 16.1 mph - N/A   Clear
8:53 PM 82.0 °F 45.0 °F 27% 29.71 in 10.0 mi South 18.4 mph 26.5 mph N/A   Clear
9:53 PM 80.1 °F 46.0 °F 30% 29.72 in 10.0 mi South 20.7 mph 28.8 mph N/A   Clear
10:53 PM 78.1 °F 45.0 °F 31% 29.72 in 10.0 mi South 21.9 mph 28.8 mph N/A   Clear
11:53 PM 75.9 °F 45.0 °F 33% 29.71 in 10.0 mi South 20.7 mph 27.6 mph N/A   Clear